Capital City, MI

7:47 PM EST on December 07, 2016 (GMT -0500)
Capital City | | Change Station

Elev 873 ft 42.78 °N, 84.58 °W | Updated 54 minutes ago

Overcast
Overcast
32 °F
Feels Like 22 °F
N
14
Wind Variable Wind from WSW

Today
High -- | Low -- °F
--% Chance of Precip.
Yesterday
High -- | Low -- °F
Precip. -- in
Pressure 30.04 in
Visibility 10.0 miles
Clouds Overcast 3000 ft
Windchill 22 °F
Dew Point 22 °F
Humidity 66%
Rainfall 0.00 in
Snow Depth Not available.
7:55 AM 5:04 PM
First Quarter, 57% visible
METAR KLAN 072353Z 24012KT 10SM OVC030 00/M06 A3002 RMK AO2 SLP173 T00001056 10033 20000 51006
Pressure 30.04 in
Visibility 10.0 miles
Clouds Overcast 3000 ft
Windchill 22 °F
Dew Point 22 °F
Humidity 66%
Rainfall 0.00 in
Snow Depth Not available.
7:55 AM 5:04 PM
First Quarter, 57% visible
METAR KLAN 072353Z 24012KT 10SM OVC030 00/M06 A3002 RMK AO2 SLP173 T00001056 10033 20000 51006

10-Day Weather Forecast

Almanac

Astronomy

Dec. 07, 2016 Rise Set
Actual Time
Civil Twilight
Nautical Twilight
Astronomical Twilight
Moon
Length of Visible Light
Length of Day
Tomorrow will be .
, % of the Moon is Illuminated

Today's Extremes

State Highs State Lows

Community

WunderPhotos

Upload Photos

1,956,237 photos uploaded!

WunderBlog® & News

Nearby

Air Quality

  Air Quality AQ Index Pollutant
Not available.

Snow Depth

Station Depth Elevation

Earthquake Activity

City Distance Mag. Time & Date
Minimum magnitude displayed is 2.5.

Coastal Water Temperatures

Place Temperature

Stations

Nearby Weather Stations

Station Location Temp. Windchill Dew Point Humidity Wind Precip. Elev Updated Type
                   

Watches & Warnings

There are currently no watches in effect.